Simultaneous Nadir Overpasses (SNOs) Predictions

Prediction of SNOs between LANDSAT-8 and METOP-A Satellite Orbit:

Table of predicted SNOs for the next 14.0 days since TLE Epoch: 2/11/2017
Index Date (LANDSAT-8) Time (LANDSAT-8) Lat,Lon (LANDSAT-8) SZA (LANDSAT-8 ) Date (METOP-A) Time (METOP-A) Lat,Lon (METOP-A) SZA (METOP-A ) Distance(km) Time Diff (sec)
1 02/11/2017 07:19:01 81.13, 109.97 96.68 02/11/2017 07:18:12 81.13, 110.04 96.67 1.21 49
2 02/11/2017 08:08:27 -81.15, -82.10 83.30 02/11/2017 08:08:51 -81.15, -82.08 83.28 0.52 24
3 02/14/2017 02:53:15 81.12, 176.26 95.72 02/14/2017 02:52:33 81.13, 176.28 95.71 0.79 42
4 02/14/2017 03:42:40 -81.16, -15.43 84.20 02/14/2017 03:43:11 -81.16, -15.44 84.20 0.66 31
5 02/16/2017 22:27:29 81.13,-117.13 94.78 02/16/2017 22:26:54 81.13,-117.13 94.77 0.09 35
6 02/16/2017 23:16:55 -81.15, 50.84 85.19 02/16/2017 23:17:33 -81.15, 50.80 85.18 0.76 38
7 02/19/2017 18:01:43 81.14, -50.55 93.81 02/19/2017 18:01:15 81.14, -50.56 93.80 0.39 28
8 02/19/2017 18:51:09 -81.16, 117.44 86.16 02/19/2017 18:51:54 -81.16, 117.39 86.15 1.07 45
9 02/22/2017 13:35:56 81.15, 16.00 92.82 02/22/2017 13:35:35 81.14, 15.99 92.81 0.67 21




NCC Satellite Simultaneous Nadir Overpasses (SNOs) Prediction Service
